Location: Newark
(45.2500°N, 7.5833°E)
Time: 06:06:09
(UTC+00:00)

N. Korean satellite - Pass Details

Date: 22 December 2019
Orbit: 454 x 508 km, 97.2° (Epoch: 20 January)

Event Time Altitude Azimuth Distance (km) Brightness Sun altitude
Rises 04:35:21 0° 26° (NNE) 2,500 10.4 -25.4°
Reaches altitude 10° 04:37:48 10° 44° (NE) 1,612 9.6 -25.0°
Maximum altitude 04:40:26 20° 94° (E) 1,114 9.2 -24.6°
Drops below altitude 10° 04:43:01 10° 143° (SE) 1,590 9.7 -24.1°
Sets 04:45:25 0° 161° (SSE) 2,455 10.5 -23.7°
